EHI
0 0 0 0 0 0 0 0 0 0 0 0 0 0 0 0 0 0 1 5 6 4 3 2 1 1 0 0 0 0 0 0 0 0 0 0 0 0 0 0 0 0 0
0 0 0 0 0 0 0 0 0 0 0 0 0 0 0 0 0 0 1 3 4 3 4 4 2 1 0 0 0 0 0 0 0 0 0 0 0 0 0 0 0 0 0
0 0 0 0 0 0 0 0 0 0 0 0 0 0 0 0 0 0 0 1 1 2 4 5 4 2 0 0 0 0 0 0 0 0 0 0 0 0 0 1 0 0 0
0 0 0 0 0 0 0 0 0 0 0 0 0 0 0 0 0 0 0 0 0 0 3 6 6 3 2 1 0 0 0 0 0 0 0 0 0 0 0 0 0 0 0
0 0 0 0 0 0 0 0 0 0 0 0 0 0 0 0 0 0 0 0 0 0 1 4 5 4 4 4 2 2 1 0 0 0 0 0 0 0 0 0 0 0 0
1 0 0 0 0 0 0 0 0 0 0 0 0 0 0 0 0 0 0 0 0 0 0 1 2 2 4 6 6 4 3 1 0 0 0 0 0 0 0 0 0 0 0
2 1 0 0 0 0 0 0 0 0 0 0 0 0 0 0 0 0 0 0 0 0 0 0 0 0 2 5 6 5 4 2 0 0 0 0 0 0 0 0 0 0 0
4 2 1 0 0 0 0 0 0 0 0 0 0 0 0 0 0 0 0 0 0 0 0 0 0 0 0 1 2 2 2 1 0 0 1 1 1 0 0 0 0 0 0
4 3 1 1 1 1 0 0 0 0 0 0 0 0 0 0 0 0 0 0 0 0 0 0 0 0 0 0 0 0 1 1 0 0 1 1 1 0 0 0 0 0 0
4 4 3 2 3 3 1 1 0 0 0 0 0 0 0 0 0 0 0 0 0 0 0 0 0 0 0 0 0 0 1 1 1 0 0 0 0 0 0 0 0 0 0
5 6 5 5 5 5 4 3 1 1 1 1 0 0 0 0 0 0 0 0 0 0 0 0 0 1 1 0 0 0 1 1 1 0 0 0 0 0 0 0 0 0 0
5 7 7 7 6 6 6 5 3 2 2 2 1 0 0 1 1 1 0 0 0 0 0 0 0 1 2 1 0 0 0 0 0 0 0 0 0 0 0 0 0 0 0
6 7 7 6 6 6 8 8 5 4 3 3 2 1 1 2 3 2 1 1 0 0 0 0 0 1 1 1 1 0 0 0 0 0 0 0 0 0 0 0 0 0 0
6 5 5 4 4 6 8 9 7 5 4 3 3 2 2 3 4 4 3 2 1 0 0 0 0 0 0 0 0 0 0 0 0 0 0 0 0 0 0 0 0 0 0
5 4 3 3 4 6 8 9 8 7 5 4 3 3 4 5 5 4 3 2 1 0 0 0 0 0 0 0 0 0 0 0 0 0 0 0 0 0 0 0 0 0 0
6 6 5 4 6 7 8 8 8 6 5 5 4 4 5 5 3 2 1 1 1 0 0 0 0 0 0 1 0 0 0 0 0 0 0 0 0 0 0 0 0 0 0
8 8 7 5 5 5 5 5 5 5 4 4 3 3 3 2 1 0 0 0 0 0 0 0 0 0 0 0 0 0 0 0 0 0 0 0 0 0 0 0 0 0 0
7 7 6 4 4 4 3 3 4 3 3 3 3 3 1 0 0 0 0 0 0 0 0 0 0 0 0 0 0 0 0 0 0 0 0 0 0 0 0 0 0 0 0
5 5 5 4 4 4 4 3 3 3 3 3 3 2 1 0 0 0 0 0 0 0 0 0 0 0 0 0 0 0 0 0 0 0 0 0 0 0 0 0 0 0 0
7 7 5 4 4 4 3 3 3 3 3 3 3 2 1 0 0 0 0 0 0 0 0 0 0 0 0 0 0 0 0 0 0 0 0 0 0 0 0 0 0 0 0
12 10 6 4 3 3 2 3 3 3 3 2 1 1 0 0 0 0 0 0 0 0 0 0 0 0 0 0 0 0 0 0 0 0 0 0 0 0 0 0 0 0 0
14 12 7 4 3 1 1 1 2 2 2 1 0 0 0 0 0 0 0 0 0 0 0 0 0 0 0 0 0 0 0 0 0 0 0 0 0 0 0 0 0 0 0
17 13 8 5 3 1 0 0 1 1 1 0 0 0 0 0 0 0 0 0 0 0 0 0 0 0 0 0 0 0 0 0 0 0 0 0 0 0 0 0 0 0 0
20 16 10 5 3 1 0 0 0 0 0 0 0 0 0 0 0 0 0 0 0 0 0 0 0 0 0 0 0 0 0 0 0 0 0 0 0 0 0 0 0 0 0
24 20 14 8 5 2 0 0 0 0 0 0 0 0 0 0 0 0 0 0 0 0 0 0 0 0 0 0 0 0 0 0 0 0 0 0 0 0 0 0 0 0 0
25 22 17 11 7 2 0 0 0 0 0 0 0 0 0 0 0 0 0 0 0 0 0 0 0 0 0 0 0 0 0 0 0 0 0 0 0 0 0 0 0 0 0
Wind_Speed
2 2 1 1 2 2 2 2 2 2 2 2 2 3 3 5 6 5 4 13 13 13 13 13 13 12 12 12 11 11 11 11 11 10 10 10 10 10 10 9 9 8 8
3 3 2 2 2 2 2 3 3 2 2 1 1 2 3 4 5 5 4 8 13 12 12 13 13 12 12 12 12 12 11 11 10 10 10 9 9 9 9 9 8 8 8
3 3 2 2 2 2 2 1 1 1 1 1 1 1 2 3 4 5 5 3 5 10 11 11 12 12 12 12 12 12 11 10 10 10 9 9 8 8 8 8 7 6 6
3 3 2 1 1 1 1 1 1 1 1 1 1 0 1 2 3 4 3 3 3 3 6 10 10 10 10 10 10 10 10 9 9 9 9 9 9 8 7 7 7 6 6
3 2 2 1 1 1 1 1 1 1 1 1 1 1 1 2 2 3 4 4 3 3 3 6 7 7 9 9 9 9 9 9 8 8 8 7 7 7 7 7 6 6 6
3 3 2 1 1 1 0 1 1 1 1 2 2 2 1 1 2 2 3 3 3 3 3 2 2 4 7 6 7 8 8 8 8 8 8 8 7 6 6 6 6 6 6
2 2 2 1 1 1 1 1 1 1 0 1 2 2 2 2 1 1 1 2 2 2 2 2 1 1 2 4 5 5 7 8 7 7 7 7 6 5 5 5 5 5 5
2 3 2 2 2 1 0 1 1 1 1 1 2 2 1 2 2 1 1 2 1 1 2 2 2 2 1 0 2 4 5 5 6 6 6 6 4 4 4 5 4 5 5
2 2 2 2 2 2 1 1 2 3 2 1 2 3 3 2 0 2 2 1 2 2 1 1 2 2 1 1 0 1 3 4 5 6 6 6 5 4 4 4 4 4 4
2 2 2 2 2 2 2 2 2 2 2 1 1 1 2 4 3 1 1 1 2 2 2 2 1 2 2 1 2 3 3 3 4 4 4 5 4 4 4 4 4 4 4
1 2 2 2 2 2 2 1 1 1 2 2 2 1 1 1 2 3 2 0 1 2 1 2 1 1 2 1 1 3 3 3 3 4 4 4 5 4 4 4 5 5 5
0 1 1 1 1 1 1 2 2 2 1 1 1 2 2 2 2 3 2 2 1 1 1 1 1 1 2 2 2 5 5 5 5 5 5 5 5 5 5 5 6 7 7
1 1 1 1 1 1 2 2 2 1 1 1 1 1 2 2 2 3 3 2 1 1 1 1 1 1 2 2 2 6 6 6 6 6 6 6 6 6 6 6 8 8 8
2 2 2 1 1 2 2 2 1 1 1 0 0 1 1 1 2 3 4 4 2 1 1 1 1 1 2 2 4 5 4 8 7 7 7 7 7 8 8 9 10 9 9
2 3 2 2 2 2 2 2 1 0 1 1 1 1 0 0 1 2 3 5 5 3 1 1 1 1 2 2 4 3 4 8 9 9 8 8 9 9 10 10 10 10 9
3 3 2 2 2 2 2 2 1 0 1 0 0 1 1 0 0 1 2 2 3 4 3 1 1 2 3 4 5 4 4 9 9 9 9 9 9 9 9 9 9 9 8
3 3 3 2 2 2 2 2 1 1 1 1 1 1 1 1 1 1 2 2 2 3 4 2 1 2 3 4 3 3 4 3 4 8 9 9 9 9 9 9 8 8 7
3 3 3 3 2 2 2 1 1 1 1 1 1 2 1 1 2 1 2 2 2 3 4 4 2 2 3 4 4 3 3 4 3 6 8 8 8 8 8 7 7 6 6
4 3 3 3 2 2 2 1 1 1 1 2 2 2 1 2 2 1 2 2 2 3 4 5 4 2 2 3 3 3 3 2 3 4 6 6 7 7 7 6 6 6 5
4 4 3 3 3 2 2 2 2 2 2 2 2 2 2 2 2 2 3 3 4 5 5 5 4 3 2 2 3 3 2 1 1 2 3 3 4 5 5 5 5 5 5
5 4 4 3 3 2 2 2 2 2 2 2 2 1 1 2 3 3 3 4 5 5 5 5 4 3 2 3 3 2 3 2 1 1 1 1 1 1 1 3 4 4 4
4 4 4 4 3 2 3 4 3 2 2 3 2 1 1 2 3 4 6 7 8 8 7 5 4 4 4 4 3 4 3 3 1 1 2 1 1 1 2 2 3 5 5
5 5 4 4 3 3 4 5 4 3 2 2 3 2 2 2 3 4 5 6 5 7 9 7 7 6 6 6 6 5 3 3 3 3 3 1 1 2 3 3 6 6 6
6 5 5 5 4 4 5 6 5 3 2 2 2 3 3 3 3 5 5 4 3 2 3 4 5 5 5 5 6 6 5 3 1 1 3 2 2 2 3 2 6 8 8
5 5 5 5 5 4 5 6 6 2 2 1 1 2 3 3 4 7 5 4 3 1 2 4 4 5 7 9 7 5 4 4 2 2 2 3 2 1 1 3 4 8 9
5 5 5 5 5 4 5 7 6 3 2 1 1 1 3 4 6 7 5 5 4 3 3 2 2 3 4 6 8 6 6 4 3 2 3 3 2 2 1 2 2 2 4
Wind_Direction
159 162 168 170 179 180 179 187 224 244 242 239 221 180 160 154 157 161 177 183 182 181 183 185 187 188 190 191 192 193 194 196 196 197 201 204 204 206 206 208 206 206 208
153 155 155 171 190 185 183 189 202 209 213 197 187 157 153 151 159 168 173 185 188 189 191 192 195 197 199 200 200 201 200 200 199 199 203 206 208 210 211 213 214 213 213
154 153 153 180 200 189 179 176 190 169 164 134 125 114 131 149 158 172 172 178 188 195 198 201 201 204 205 205 206 206 205 205 203 204 204 206 207 209 211 210 210 205 207
152 147 151 182 183 158 155 155 143 119 111 107 107 105 118 134 155 164 167 180 178 189 203 203 203 205 206 205 204 202 202 203 201 202 204 207 208 206 206 207 205 205 209
156 150 160 188 159 129 140 171 133 147 142 140 148 134 119 135 155 153 155 165 167 176 190 200 203 204 209 209 204 201 200 199 202 201 198 198 203 203 205 207 209 210 207
161 150 157 168 148 129 137 140 145 144 155 155 121 89 79 126 132 146 164 163 169 176 180 181 192 203 208 205 204 201 200 197 198 200 200 199 202 202 201 204 209 210 208
159 150 157 155 147 156 189 178 156 138 136 124 96 67 33 42 91 118 153 149 165 172 168 174 173 182 221 208 201 198 202 201 199 197 195 197 200 199 198 199 195 193 197
167 164 157 169 160 159 161 161 144 148 191 157 137 124 78 9 25 45 90 121 130 126 147 163 151 162 198 200 178 192 195 196 199 194 184 179 183 182 181 181 183 188 190
176 171 166 166 170 162 180 196 166 162 183 222 166 151 157 191 238 10 40 72 91 100 111 112 136 143 146 126 150 191 187 191 204 207 194 182 181 178 169 168 167 166 171
171 166 156 155 163 162 174 199 168 170 159 190 242 205 172 158 158 153 17 35 67 82 101 113 103 97 107 105 106 113 138 168 180 183 174 172 172 171 169 172 164 152 147
178 159 152 151 159 159 165 163 144 153 160 175 192 189 143 127 140 151 184 179 52 46 84 109 103 90 87 101 112 119 126 141 145 148 150 158 160 159 158 157 157 148 133
194 158 134 152 163 159 160 167 163 155 164 168 191 183 173 173 173 159 170 170 139 51 57 79 93 84 78 80 120 120 118 111 110 114 115 119 125 128 131 132 133 126 120
193 209 164 164 166 169 161 147 141 148 165 186 208 202 193 200 172 154 146 150 141 139 82 62 62 87 90 68 89 106 100 104 106 107 110 111 111 109 109 110 113 112 108
192 186 159 143 136 136 136 127 126 160 147 158 164 176 197 218 174 160 156 149 141 133 100 105 56 74 90 84 91 96 99 103 105 106 110 110 106 102 102 103 102 100 97
175 158 145 136 130 123 126 122 109 143 126 132 134 112 117 264 171 170 159 159 155 160 181 151 120 105 112 95 98 89 92 101 102 102 106 109 109 105 104 103 101 98 94
158 143 135 126 112 99 103 110 105 44 92 56 118 80 47 356 132 144 155 160 155 149 153 150 147 150 130 117 107 93 96 106 102 104 107 111 113 112 110 109 109 106 103
149 142 134 123 116 104 99 105 129 101 98 63 53 76 53 75 85 125 139 135 128 126 130 113 95 120 113 118 106 92 88 81 97 108 111 112 113 114 115 114 111 110 110
145 140 134 122 119 108 103 111 113 102 102 94 65 65 40 70 68 94 126 125 126 126 133 136 130 124 120 134 124 116 110 106 97 113 116 116 115 114 114 115 113 112 112
141 131 127 128 123 117 111 123 137 135 123 116 106 96 84 89 83 90 114 117 118 114 114 134 137 124 117 133 117 113 104 91 115 120 118 117 119 120 121 122 120 115 116
146 143 142 141 134 124 120 118 116 114 102 100 103 111 112 127 137 131 125 125 120 114 117 127 129 126 119 124 125 128 111 88 113 122 114 125 132 135 138 137 136 134 129
155 153 146 142 145 141 145 139 135 130 124 107 87 78 109 135 145 147 143 143 135 129 132 132 136 131 138 150 165 156 141 127 78 129 111 128 132 136 180 182 174 166 156
155 151 153 154 156 161 154 150 137 129 140 142 140 132 122 110 124 129 134 141 150 151 154 151 154 164 173 171 158 158 148 144 188 220 145 191 160 207 233 221 205 191 187
161 159 159 156 167 178 164 160 153 140 142 157 165 166 161 138 133 130 127 121 132 152 158 160 164 178 177 180 167 166 170 167 189 189 147 197 215 229 236 222 209 207 203
170 171 171 171 175 185 171 165 156 138 134 138 161 170 159 152 153 145 135 118 110 125 156 158 171 183 179 174 175 173 169 152 129 162 151 176 214 225 243 236 222 211 210
173 172 176 178 181 193 181 171 155 138 142 141 168 166 157 155 164 151 137 133 123 108 126 144 161 170 167 164 158 139 139 139 163 219 185 166 197 207 242 244 238 219 214
176 173 180 184 185 192 190 178 165 153 161 177 172 171 166 164 165 162 152 152 157 178 156 135 126 143 157 167 167 166 165 160 160 206 204 168 183 158 251 265 238 225 220